Regional Weather Roundup
Issued by NWS Albany, NY

Home | Current Version | Previous Version | Graphics & Text | Print | Product List | Glossary Off
Versions: 1 2 3 4 5 6 7 8 9 10 11 12 13 14 15 16 17 18 19 20 21 22 23 24 25 26 27 28 29 30 31 32 33 34 35 36 37 38 39 40 41 42 43 44 45 46 47 48 49 50

000
ASUS41 KALY 070810
RWRALY

NEW YORK STATE HOURLY WEATHER ROUNDUP
NATIONAL WEATHER SERVICE ALBANY NY
400 AM EDT TUE JUL 07 2015

NOTE: "FAIR" INDICATES FEW OR NO CLOUDS BELOW 12,000 FEET WITH NO
SIGNIFICANT WEATHER AND/OR NO OBSTRUCTIONS TO VISIBILITY.

NYZ032-033-038>043-046>054-057>066-NYZ062>081-070900-
EAST


CITY           SKY/WX    TMP DP  RH WIND       PRES   REMARKS
ALBANY         PTCLDY    72  65  78 S7        30.04F
GLENS FALLS    CLOUDY    68  65  90 CALM      30.04F
POUGHKEEPSIE   MOCLDY    69  65  86 CALM      30.05S
NEWBURGH       PTCLDY    70  64  83 MISG      30.07F
MONTGOMERY     CLOUDY    71  68  90 N3        30.05F
WHITE PLAINS     N/A     72  68  87 CALM      30.06S
ISLIP          CLOUDY    73  71  93 S8        30.05S FOG
NEW YORK CITY  CLOUDY    75  71  87 S7        30.04F
CENTRAL PARK   CLOUDY    75  70  84 CALM      30.08S
$$

NYZ005>009-017-018-044>046-055-056-070900-
CENTRAL


CITY           SKY/WX    TMP DP  RH WIND       PRES   REMARKS
FULTON         MOCLDY    71  66  84 SE5       29.96F
SYRACUSE       MOCLDY    74  68  81 SE9       29.96F
ROME           CLOUDY    71  65  81 E7        30.01F
ELMIRA         CLOUDY    71  69  93 SE6       29.99F
BINGHAMTON     MOCLDY    68  67  96 SE7       30.04S
MONTICELLO     CLOUDY    68  66  94 SE3       30.09S
$$

NYZ026>034-041>043-070900-
NORTH


CITY           SKY/WX    TMP DP  RH WIND       PRES   REMARKS
WATERTOWN      PTCLDY    73  66  78 S7        29.94F
FORT DRUM      NOT AVBL
MASSENA        MOCLDY    63  60  90 CALM      29.96R
SARANAC LAKE   CLEAR     54  52  93 CALM      30.04S
PLATTSBURGH    CLOUDY    61  59  93 CALM      29.99S
$$

NYZ001>004-010>016-019>021-070900-
WEST


CITY           SKY/WX    TMP DP  RH WIND       PRES   REMARKS
BUFFALO        MOCLDY    71  66  84 S9        29.95S
DUNKIRK        PTCLDY    71  67  87 SW8       29.95F
JAMESTOWN      CLOUDY    66  64  94 S6        30.02S
WELLSVILLE     MOCLDY    69  65  86 SW5       30.05R
ROCHESTER      PTCLDY    71  67  87 SW3       29.94F
PENN YAN       MOCLDY    70  67  90 SW3       29.98F
$$

             KEY
       WCI = WIND CHILL INDEX
       VSB = VISIBILITY
       HX  = HEAT INDEX
$$



USA.gov is the U.S. government's official web portal to all federal, state and local government web resources and services.